Location: Brachstadt
(48.6975°N, 10.6755°E)
Time: 06:12:13
(UTC+00:00)

Cosmos 1766 - Pass Details

Date: 18 September 2020
Orbit: 522 x 543 km, 82.5° (Epoch: 22 October)

Event Time Altitude Azimuth Distance (km) Brightness Sun altitude
Exits shadow 19:34:05 33° 39° (NE) 915 4.3 -21.5°
Drops below altitude 10° 19:36:31 10° 19° (NNE) 1,802 6.1 -21.8°
Sets 19:38:44 0° 15° (NNE) 2,702 7.1 -22.2°
